TimeCDT,TemperatureF,Dew PointF,Humidity,Sea Level PressureIn,VisibilityMPH,Wind Direction,Wind SpeedMPH,Gust SpeedMPH,PrecipitationIn,Events,Conditions,WindDirDegrees,DateUTC
12:53 AM,81.0,63.0,54,29.78,10.0,South,21.9,28.8,N/A,,Clear,180,2013-05-27 05:53:00
1:53 AM,79.0,62.1,56,29.78,10.0,South,19.6,27.6,N/A,,Clear,180,2013-05-27 06:53:00
2:53 AM,77.0,62.1,60,29.78,10.0,South,13.8,-,N/A,,Clear,180,2013-05-27 07:53:00
3:53 AM,75.0,62.1,64,29.77,10.0,South,12.7,-,N/A,,Clear,180,2013-05-27 08:53:00
4:53 AM,73.0,62.1,68,29.75,10.0,South,13.8,-,N/A,,Clear,170,2013-05-27 09:53:00
5:53 AM,73.0,64.9,76,29.75,10.0,South,13.8,20.7,N/A,,Clear,180,2013-05-27 10:53:00
6:53 AM,72.0,66.0,81,29.75,10.0,South,16.1,-,N/A,,Clear,180,2013-05-27 11:53:00
7:53 AM,73.9,66.0,76,29.77,10.0,South,13.8,20.7,N/A,,Clear,190,2013-05-27 12:53:00
8:53 AM,75.9,66.0,71,29.77,10.0,South,19.6,-,N/A,,Clear,190,2013-05-27 13:53:00
9:53 AM,80.1,64.9,60,29.76,10.0,SSW,20.7,28.8,N/A,,Clear,200,2013-05-27 14:53:00
10:53 AM,84.9,64.0,49,29.74,10.0,SSW,21.9,28.8,N/A,,Clear,200,2013-05-27 15:53:00
11:53 AM,90.0,63.0,40,29.73,10.0,SW,25.3,31.1,N/A,,Clear,220,2013-05-27 16:53:00
12:53 PM,93.0,63.0,37,29.69,10.0,South,24.2,33.4,N/A,,Clear,190,2013-05-27 17:53:00
1:53 PM,97.0,61.0,30,29.66,10.0,WSW,25.3,31.1,N/A,,Clear,240,2013-05-27 18:53:00
2:53 PM,100.0,57.9,25,29.63,10.0,SW,20.7,27.6,N/A,,Clear,220,2013-05-27 19:53:00
3:53 PM,100.9,57.9,24,29.60,10.0,South,20.7,28.8,N/A,,Clear,190,2013-05-27 20:53:00
4:53 PM,100.0,57.0,24,29.57,10.0,SSW,17.3,39.1,N/A,,Clear,210,2013-05-27 21:53:00
5:24 PM,95.0,62.6,34,29.63,10.0,South,26.5,35.7,N/A,Thunderstorm,Clear,170,2013-05-27 22:24:00
5:46 PM,82.4,69.8,66,29.68,2.0,South,26.5,43.7,0.08,Rain-Thunderstorm,Thunderstorms and Rain,190,2013-05-27 22:46:00
5:53 PM,81.0,69.1,67,29.61,3.0,SW,46.0,54.1,0.12,Rain-Thunderstorm,Thunderstorms and Rain,220,2013-05-27 22:53:00
6:03 PM,78.8,66.2,65,29.69,2.5,SSW,32.2,42.6,0.05,Rain-Thunderstorm,Heavy Thunderstorms and Rain,210,2013-05-27 23:03:00
6:11 PM,77.0,68.0,74,29.68,4.0,SSW,16.1,39.1,0.08,Rain-Thunderstorm,Light Rain,200,2013-05-27 23:11:00
6:26 PM,82.4,68.0,62,29.67,10.0,South,20.7,25.3,0.08,,Scattered Clouds,180,2013-05-27 23:26:00
6:53 PM,86.0,69.1,57,29.59,10.0,South,16.1,23.0,0.08,,Clear,180,2013-05-27 23:53:00
7:53 PM,84.9,66.0,53,29.60,10.0,South,18.4,29.9,N/A,,Clear,190,2013-05-28 00:53:00
8:53 PM,82.0,64.9,56,29.63,10.0,South,20.7,35.7,N/A,,Clear,180,2013-05-28 01:53:00
9:53 PM,80.1,64.9,60,29.63,10.0,South,21.9,28.8,N/A,,Clear,180,2013-05-28 02:53:00
10:53 PM,80.1,64.9,60,29.65,10.0,South,24.2,32.2,N/A,,Clear,180,2013-05-28 03:53:00
11:53 PM,78.1,64.9,64,29.66,10.0,South,23.0,29.9,N/A,,Clear,180,2013-05-28 04:53:00